TimeCDT,TemperatureF,Dew PointF,Humidity,Sea Level PressureIn,VisibilityMPH,Wind Direction,Wind SpeedMPH,Gust SpeedMPH,PrecipitationIn,Events,Conditions,WindDirDegrees,DateUTC
12:15 AM,71.6,32.0,23,30.13,8.0,SSE,3.5,-,N/A,,Clear,150,2013-06-25 05:15:00
12:35 AM,71.6,32.0,23,30.12,9.0,Calm,Calm,-,N/A,,Clear,0,2013-06-25 05:35:00
12:55 AM,69.8,32.0,25,30.13,6.0,Calm,Calm,-,N/A,,Clear,0,2013-06-25 05:55:00
1:15 AM,69.8,32.0,25,30.12,5.0,Calm,Calm,-,N/A,,Clear,0,2013-06-25 06:15:00
1:35 AM,69.8,32.0,25,30.12,6.0,Calm,Calm,-,N/A,,Clear,0,2013-06-25 06:35:00
1:55 AM,68.0,32.0,26,30.11,2.0,Calm,Calm,-,N/A,,Clear,0,2013-06-25 06:55:00
2:15 AM,68.0,32.0,26,30.11,2.0,Calm,Calm,-,N/A,,Clear,0,2013-06-25 07:15:00
2:35 AM,66.2,32.0,28,30.11,0.2,Calm,Calm,-,N/A,,Unknown,0,2013-06-25 07:35:00
2:55 AM,66.2,32.0,28,30.11,2.0,Calm,Calm,-,N/A,,Unknown,0,2013-06-25 07:55:00
3:15 AM,66.2,32.0,28,30.11,4.0,Calm,Calm,-,N/A,,Clear,0,2013-06-25 08:15:00
3:35 AM,66.2,32.0,28,30.11,4.0,Calm,Calm,-,N/A,,Clear,0,2013-06-25 08:35:00
3:55 AM,66.2,32.0,28,30.11,4.0,Calm,Calm,-,N/A,,Clear,0,2013-06-25 08:55:00
4:15 AM,66.2,32.0,28,30.11,3.0,Calm,Calm,-,N/A,,Clear,0,2013-06-25 09:15:00
4:35 AM,66.2,32.0,28,30.12,0.8,Calm,Calm,-,N/A,,Unknown,0,2013-06-25 09:35:00
4:55 AM,66.2,32.0,28,30.12,2.0,Calm,Calm,-,N/A,,Scattered Clouds,0,2013-06-25 09:55:00
5:15 AM,68.0,32.0,26,30.13,4.0,Calm,Calm,-,N/A,,Mostly Cloudy,0,2013-06-25 10:15:00
5:35 AM,69.8,32.0,25,30.14,5.0,Calm,Calm,-,N/A,,Overcast,0,2013-06-25 10:35:00
5:55 AM,69.8,32.0,25,30.14,7.0,Calm,Calm,-,N/A,,Overcast,0,2013-06-25 10:55:00
6:15 AM,69.8,32.0,25,30.14,6.0,Calm,Calm,-,N/A,,Overcast,0,2013-06-25 11:15:00
6:35 AM,69.8,32.0,25,30.15,5.0,Calm,Calm,-,N/A,,Overcast,0,2013-06-25 11:35:00
6:55 AM,71.6,32.0,23,30.15,5.0,Calm,Calm,-,N/A,,Overcast,0,2013-06-25 11:55:00
7:15 AM,71.6,32.0,23,30.16,5.0,Calm,Calm,-,N/A,,Overcast,0,2013-06-25 12:15:00
7:35 AM,71.6,32.0,23,30.17,5.0,Calm,Calm,-,N/A,,Overcast,0,2013-06-25 12:35:00
7:55 AM,71.6,32.0,23,30.17,5.0,SSW,3.5,-,N/A,,Overcast,210,2013-06-25 12:55:00
8:15 AM,71.6,32.0,23,30.17,5.0,SSW,4.6,-,N/A,,Overcast,210,2013-06-25 13:15:00
8:35 AM,73.4,32.0,22,30.17,4.0,SW,4.6,-,N/A,,Overcast,220,2013-06-25 13:35:00
8:55 AM,73.4,32.0,22,30.17,4.0,SW,3.5,-,N/A,,Overcast,220,2013-06-25 13:55:00
9:15 AM,73.4,32.0,22,30.17,4.0,SW,4.6,-,N/A,,Overcast,220,2013-06-25 14:15:00
9:35 AM,75.2,32.0,21,30.16,5.0,South,3.5,-,N/A,,Overcast,180,2013-06-25 14:35:00
9:55 AM,75.2,32.0,21,30.16,6.0,SSW,4.6,-,N/A,,Overcast,200,2013-06-25 14:55:00
10:15 AM,77.0,32.0,19,30.16,7.0,SW,5.8,-,N/A,,Overcast,220,2013-06-25 15:15:00
10:35 AM,78.8,32.0,18,30.16,8.0,SSW,3.5,-,N/A,,Overcast,210,2013-06-25 15:35:00
10:55 AM,77.0,32.0,19,30.16,8.0,Calm,Calm,-,N/A,,Mostly Cloudy,0,2013-06-25 15:55:00
11:15 AM,80.6,32.0,17,30.15,6.0,SW,3.5,-,N/A,,Partly Cloudy,230,2013-06-25 16:15:00
11:35 AM,80.6,32.0,17,30.14,4.0,SSE,4.6,-,N/A,,Mostly Cloudy,160,2013-06-25 16:35:00
11:55 AM,82.4,32.0,16,30.14,4.0,WSW,5.8,-,N/A,,Mostly Cloudy,240,2013-06-25 16:55:00
12:15 PM,82.4,32.0,16,30.13,6.0,Variable,4.6,-,N/A,,Mostly Cloudy,0,2013-06-25 17:15:00
12:35 PM,82.4,32.0,16,30.13,5.0,Variable,5.8,-,N/A,,Scattered Clouds,0,2013-06-25 17:35:00
12:55 PM,86.0,32.0,14,30.13,10.0,West,4.6,-,N/A,,Partly Cloudy,270,2013-06-25 17:55:00
1:15 PM,84.2,32.0,15,30.12,9.0,WSW,4.6,-,N/A,,Mostly Cloudy,240,2013-06-25 18:15:00
1:35 PM,86.0,32.0,14,30.12,10.0,WSW,5.8,-,N/A,,Partly Cloudy,250,2013-06-25 18:35:00
1:55 PM,86.0,32.0,14,30.11,10.0,WSW,3.5,-,N/A,,Clear,250,2013-06-25 18:55:00
2:15 PM,87.8,32.0,14,30.10,10.0,Variable,5.8,-,N/A,,Clear,0,2013-06-25 19:15:00
2:35 PM,87.8,32.0,14,30.09,10.0,Variable,4.6,-,N/A,,Clear,0,2013-06-25 19:35:00
2:55 PM,87.8,32.0,14,30.08,10.0,WSW,9.2,-,N/A,,Partly Cloudy,250,2013-06-25 19:55:00
3:15 PM,87.8,32.0,14,30.08,10.0,WSW,5.8,-,N/A,,Partly Cloudy,250,2013-06-25 20:15:00
3:35 PM,87.8,32.0,14,30.07,10.0,WSW,6.9,-,N/A,,Clear,250,2013-06-25 20:35:00
3:55 PM,87.8,32.0,14,30.07,10.0,West,6.9,-,N/A,,Partly Cloudy,270,2013-06-25 20:55:00
4:15 PM,87.8,32.0,14,30.06,10.0,WSW,5.8,-,N/A,,Clear,250,2013-06-25 21:15:00
4:35 PM,84.2,32.0,15,30.06,10.0,WSW,5.8,-,N/A,,Clear,250,2013-06-25 21:35:00
4:55 PM,84.2,32.0,15,30.05,10.0,WSW,3.5,-,N/A,,Partly Cloudy,240,2013-06-25 21:55:00
5:15 PM,86.0,32.0,14,30.04,10.0,SW,5.8,-,N/A,,Partly Cloudy,220,2013-06-25 22:15:00
5:35 PM,86.0,32.0,14,30.03,10.0,WSW,6.9,-,N/A,,Clear,240,2013-06-25 22:35:00
5:55 PM,86.0,32.0,14,30.03,10.0,SW,5.8,-,N/A,,Clear,230,2013-06-25 22:55:00
6:15 PM,84.2,32.0,15,30.03,10.0,SSW,3.5,-,N/A,,Clear,210,2013-06-25 23:15:00
6:35 PM,84.2,32.0,15,30.04,8.0,SW,4.6,-,N/A,,Clear,230,2013-06-25 23:35:00
6:55 PM,84.2,32.0,15,30.03,7.0,SSW,3.5,-,N/A,,Clear,210,2013-06-25 23:55:00
7:15 PM,82.4,32.0,16,30.03,6.0,SSW,4.6,-,N/A,,Clear,200,2013-06-26 00:15:00
7:35 PM,80.6,32.0,17,30.03,7.0,South,3.5,-,N/A,,Clear,190,2013-06-26 00:35:00
7:55 PM,78.8,32.0,18,30.03,10.0,Calm,Calm,-,N/A,,Clear,0,2013-06-26 00:55:00
8:15 PM,75.2,32.0,21,30.03,10.0,Calm,Calm,-,N/A,,Clear,0,2013-06-26 01:15:00
8:35 PM,73.4,32.0,22,30.03,10.0,Calm,Calm,-,N/A,,Clear,0,2013-06-26 01:35:00
8:55 PM,75.2,32.0,21,30.03,10.0,Calm,Calm,-,N/A,,Clear,0,2013-06-26 01:55:00
9:15 PM,75.2,32.0,21,30.04,10.0,South,3.5,-,N/A,,Clear,170,2013-06-26 02:15:00
9:35 PM,75.2,32.0,21,30.03,6.0,SSE,5.8,-,N/A,,Clear,160,2013-06-26 02:35:00
9:55 PM,75.2,32.0,21,30.04,10.0,South,4.6,-,N/A,,Clear,170,2013-06-26 02:55:00
10:15 PM,75.2,32.0,21,30.04,9.0,SSE,5.8,-,N/A,,Clear,160,2013-06-26 03:15:00
10:35 PM,75.2,32.0,21,30.05,9.0,South,3.5,-,N/A,,Clear,190,2013-06-26 03:35:00
10:55 PM,73.4,32.0,22,30.05,9.0,South,3.5,-,N/A,,Clear,170,2013-06-26 03:55:00
11:15 PM,73.4,32.0,22,30.04,9.0,SSE,3.5,-,N/A,,Clear,150,2013-06-26 04:15:00
11:35 PM,73.4,32.0,22,30.04,9.0,South,4.6,-,N/A,,Clear,170,2013-06-26 04:35:00
11:55 PM,73.4,32.0,22,30.05,9.0,Calm,Calm,-,N/A,,Clear,0,2013-06-26 04:55:00